Notices

What's New in latest Release from April 7th, 2021:

- Updated Glossary, including Speed of Maximum Gust, and Total Hourly Precipitation

- Updated national and regional climate services offices contacts and prices information

- Addition of station inventory lists for 1981-2010, 1971-2000, and 1961-1990 Normals.

If you haven't already, please take our survey and provide feedback about our website: https://eccc.sondage-survey.ca/f/LanguageSelection.aspx?s=442ca660-fcf1-47c0-95a9-59707d6fd709

Hourly Data Report for October 17, 2019

PINAWA
MANITOBA
Current Station Operator: ECCC - MSC

50°10'38.020" N
96°03'53.000" W
268.00 m
503B1ER
71448
WEA

Download Data

Hourly Data (October 2019)
Hourly Data Report for October 17, 2019
TIME
LST
Temp Definition
°C
Dew Point Definition
°C
Rel Hum Definition
%
Precip. Amount Definition
mm

Wind Dir Definition
10's deg

Wind Spd Definition
km/h
Visibility Definition
km
Stn Press Definition
kPa
Hmdx Definition


Wind Chill Definition


Weather Definition


00:00 2.3 LegendMM LegendMM LegendMM 13 5   98.34     LegendNANA
01:00 0.3 LegendMM LegendMM LegendMM 12 4   98.30     LegendNANA
02:00 -0.3 LegendMM LegendMM LegendMM 11 4   98.32   -2 LegendNANA
03:00 -0.5 LegendMM LegendMM LegendMM 11 5   98.29   -2 LegendNANA
04:00 0.0 LegendMM LegendMM LegendMM 13 6   98.22   -2 LegendNANA
05:00 0.6 LegendMM LegendMM LegendMM 13 4   98.20     LegendNANA
06:00 -0.3 LegendMM LegendMM LegendMM 12 6   98.23   -2 LegendNANA
07:00 -0.6 LegendMM LegendMM LegendMM 12 6   98.23   -3 LegendNANA
08:00 2.4 LegendMM LegendMM LegendMM 14 8   98.19     LegendNANA
09:00 4.7 LegendMM LegendMM LegendMM 14 9   98.17     LegendNANA
10:00 6.1 LegendMM LegendMM LegendMM 15 13   98.11     LegendNANA
11:00 8.1 LegendMM LegendMM LegendMM 16 14   98.10     LegendNANA
12:00
13:00
14:00 10.7 LegendMM LegendMM LegendMM 14 12   97.82     LegendNANA
15:00 11.4 LegendMM LegendMM LegendMM 15 18   97.76     LegendNANA
16:00 11.0 LegendMM LegendMM LegendMM 14 10   97.71     LegendNANA
17:00 9.5 LegendMM LegendMM LegendMM 13 13   97.65     LegendNANA
18:00 8.0 LegendMM LegendMM LegendMM 12 11   97.64     LegendNANA
19:00 7.8 LegendMM LegendMM LegendMM 12 13   97.58     LegendNANA
20:00 7.3 LegendMM LegendMM LegendMM 12 14   97.53     LegendNANA
21:00 6.9 LegendMM LegendMM LegendMM 13 12   97.49     LegendNANA
22:00 7.2 LegendMM LegendMM LegendMM 13 11   97.46     LegendNANA
23:00 7.7 LegendMM LegendMM LegendMM 15 14   97.41     LegendNANA

Notes on Data Quality.

Legend

  • E = Estimated
  • M = Missing
  • NA = Not Available*
  • [empty] = Indicates an unobserved value
Date modified: